Temp
-7 -7 -6 -6 -6 -6 -5 -5 -5 -5 -4 -4 -4 -4 -4 -4 -4 -4 -4 -4 -5 -5 -5 -5 -5 -5 -5 -5 -5 -6 -6 -6 -6 -6 -6 -6 -7 -7 -7 -7 -8 -8 -8
-7 -7 -7 -6 -6 -6 -5 -5 -5 -5 -5 -5 -5 -5 -4 -5 -4 -4 -4 -5 -5 -5 -5 -5 -5 -5 -6 -6 -6 -6 -6 -6 -7 -7 -7 -7 -7 -7 -8 -8 -8 -8 -8
-7 -7 -7 -6 -6 -6 -6 -6 -6 -5 -5 -5 -5 -5 -5 -5 -5 -5 -5 -5 -5 -5 -5 -5 -6 -6 -6 -6 -6 -6 -6 -7 -7 -7 -7 -7 -8 -8 -8 -8 -9 -9 -9
-7 -7 -7 -6 -6 -6 -6 -6 -6 -6 -6 -6 -6 -6 -5 -6 -6 -6 -6 -6 -6 -6 -6 -6 -6 -6 -6 -6 -6 -7 -7 -7 -7 -7 -7 -8 -8 -8 -9 -9 -9 -9 -10
-7 -7 -7 -7 -6 -6 -6 -6 -6 -6 -6 -6 -6 -6 -6 -6 -6 -6 -6 -6 -6 -6 -6 -6 -6 -6 -6 -7 -7 -7 -7 -7 -8 -8 -8 -8 -9 -9 -9 -9 -10 -10 -10
-8 -7 -7 -7 -7 -6 -6 -6 -6 -6 -6 -6 -6 -6 -6 -6 -6 -6 -6 -6 -6 -6 -6 -6 -7 -7 -7 -7 -7 -7 -8 -8 -8 -8 -8 -9 -9 -9 -9 -9 -10 -10 -11
-8 -8 -8 -7 -7 -7 -6 -6 -6 -7 -7 -7 -7 -6 -6 -6 -6 -6 -6 -7 -7 -7 -7 -7 -7 -7 -7 -7 -7 -8 -8 -9 -9 -9 -9 -9 -9 -10 -10 -10 -10 -11 -11
-8 -8 -8 -7 -7 -7 -7 -7 -7 -7 -7 -7 -7 -7 -7 -7 -7 -7 -7 -7 -7 -7 -7 -7 -7 -7 -8 -8 -8 -8 -9 -9 -10 -10 -10 -10 -10 -10 -10 -11 -11 -11 -11
-8 -8 -8 -8 -7 -7 -7 -7 -7 -7 -7 -7 -7 -7 -7 -7 -7 -7 -7 -7 -7 -8 -8 -8 -8 -8 -8 -8 -8 -9 -9 -9 -10 -10 -10 -10 -10 -11 -11 -11 -11 -11 -11
-9 -8 -8 -8 -8 -8 -8 -8 -8 -7 -7 -7 -7 -7 -7 -7 -7 -7 -7 -7 -8 -8 -8 -8 -9 -9 -8 -8 -8 -9 -9 -10 -10 -11 -11 -11 -11 -11 -11 -11 -11 -11 -11
-9 -8 -8 -8 -8 -8 -8 -8 -8 -8 -8 -7 -7 -7 -7 -8 -8 -8 -8 -8 -8 -9 -9 -9 -9 -9 -9 -9 -9 -9 -10 -10 -10 -10 -11 -11 -11 -11 -11 -11 -11 -12 -12
-9 -9 -8 -8 -8 -8 -8 -8 -8 -8 -8 -8 -8 -8 -8 -8 -8 -8 -9 -9 -9 -9 -9 -9 -9 -9 -9 -9 -10 -10 -10 -10 -11 -11 -11 -11 -11 -12 -12 -12 -12 -12 -12
-9 -9 -9 -9 -9 -8 -8 -8 -8 -8 -8 -8 -8 -8 -8 -8 -8 -8 -8 -9 -9 -9 -10 -10 -10 -10 -10 -10 -10 -10 -10 -10 -11 -11 -11 -11 -11 -12 -12 -12 -12 -13 -13
-9 -9 -9 -9 -9 -8 -8 -8 -8 -8 -8 -9 -9 -9 -8 -9 -9 -9 -9 -9 -9 -10 -10 -10 -10 -10 -10 -10 -10 -10 -10 -10 -11 -11 -11 -11 -12 -12 -12 -12 -13 -13 -13
-9 -9 -9 -9 -9 -8 -8 -9 -9 -9 -9 -9 -9 -9 -9 -9 -9 -9 -10 -10 -10 -10 -10 -10 -10 -11 -11 -11 -11 -11 -11 -10 -11 -11 -11 -11 -11 -12 -12 -12 -13 -13 -13
-9 -9 -9 -9 -9 -8 -9 -9 -9 -9 -9 -9 -9 -10 -10 -9 -10 -10 -10 -10 -10 -10 -10 -11 -11 -11 -11 -11 -11 -11 -11 -11 -11 -11 -11 -12 -12 -12 -12 -12 -12 -13 -13
-10 -9 -9 -9 -9 -9 -9 -9 -9 -9 -10 -10 -10 -10 -10 -10 -9 -10 -10 -10 -10 -10 -11 -11 -11 -11 -11 -11 -11 -11 -11 -11 -11 -12 -12 -12 -12 -12 -12 -12 -13 -13 -13
-10 -10 -10 -10 -9 -9 -9 -9 -10 -10 -10 -10 -10 -10 -10 -10 -10 -10 -10 -10 -10 -10 -10 -11 -11 -11 -11 -11 -11 -11 -12 -12 -11 -12 -13 -13 -12 -12 -12 -13 -13 -13 -13
-10 -10 -10 -10 -9 -10 -10 -10 -10 -10 -10 -10 -10 -10 -10 -10 -10 -10 -10 -11 -11 -11 -11 -11 -11 -11 -11 -11 -11 -11 -12 -12 -12 -12 -12 -13 -13 -13 -13 -13 -13 -13 -13
-11 -10 -10 -10 -11 -11 -10 -10 -10 -10 -10 -10 -10 -10 -10 -10 -10 -11 -11 -10 -11 -11 -11 -11 -11 -11 -11 -12 -11 -11 -12 -12 -12 -12 -12 -13 -13 -13 -13 -13 -13 -13 -13
-11 -11 -11 -10 -10 -10 -11 -11 -11 -11 -10 -10 -10 -11 -11 -11 -11 -11 -11 -11 -11 -11 -11 -12 -12 -12 -12 -12 -12 -12 -12 -12 -13 -13 -13 -13 -14 -14 -14 -14 -13 -13 -13
-11 -11 -11 -11 -10 -10 -10 -10 -10 -11 -11 -11 -11 -11 -11 -10 -11 -11 -11 -12 -12 -12 -12 -12 -12 -12 -13 -13 -13 -13 -13 -13 -14 -14 -14 -14 -14 -14 -14 -14 -14 -14 -14
-11 -11 -11 -11 -11 -10 -10 -10 -11 -11 -11 -11 -11 -11 -11 -11 -10 -10 -11 -11 -12 -12 -12 -12 -12 -13 -13 -13 -13 -14 -13 -13 -14 -14 -15 -15 -15 -15 -15 -14 -14 -14 -14
-11 -11 -11 -11 -10 -10 -11 -11 -11 -11 -11 -11 -11 -11 -12 -12 -12 -11 -11 -11 -11 -12 -12 -12 -12 -13 -13 -13 -14 -14 -14 -14 -14 -14 -15 -15 -15 -15 -15 -15 -14 -14 -14
-11 -11 -10 -11 -11 -11 -11 -11 -11 -11 -11 -11 -11 -11 -11 -12 -12 -12 -12 -12 -12 -12 -12 -12 -13 -13 -13 -14 -14 -14 -15 -15 -15 -15 -15 -15 -15 -15 -15 -15 -15 -14 -14
-11 -11 -11 -11 -11 -11 -11 -11 -11 -11 -11 -11 -11 -11 -11 -11 -12 -12 -13 -13 -13 -13 -13 -13 -13 -13 -14 -14 -14 -15 -15 -16 -16 -15 -15 -15 -15 -15 -15 -15 -15 -15 -15
Height
5893 5895 5896 5898 5900 5901 5901 5901 5902 5902 5902 5903 5903 5903 5902 5903 5903 5902 5902 5902 5901 5901 5901 5900 5900 5899 5899 5898 5898 5898 5897 5897 5895 5894 5894 5893 5892 5891 5890 5889 5888 5887 5885
5891 5893 5894 5896 5898 5899 5899 5899 5900 5901 5902 5902 5902 5902 5902 5902 5902 5901 5901 5900 5900 5900 5899 5898 5898 5897 5897 5896 5895 5895 5895 5894 5893 5893 5891 5890 5889 5889 5887 5886 5885 5884 5883
5889 5891 5892 5895 5896 5897 5897 5899 5900 5900 5901 5901 5901 5901 5901 5901 5901 5900 5900 5899 5898 5898 5897 5897 5896 5895 5895 5894 5894 5893 5892 5892 5891 5890 5888 5887 5886 5886 5885 5884 5883 5882 5881
5887 5889 5891 5892 5894 5896 5897 5898 5899 5899 5899 5899 5899 5899 5899 5899 5899 5898 5898 5897 5896 5896 5895 5895 5894 5893 5892 5892 5891 5890 5889 5888 5888 5886 5885 5884 5884 5883 5882 5881 5880 5879 5879
5885 5887 5889 5891 5893 5894 5896 5897 5897 5897 5897 5898 5898 5898 5897 5897 5896 5896 5896 5895 5894 5893 5893 5892 5892 5891 5891 5890 5889 5887 5886 5885 5885 5883 5882 5881 5880 5880 5879 5878 5877 5876 5876
5883 5885 5887 5889 5890 5892 5893 5894 5895 5895 5896 5896 5896 5895 5895 5895 5894 5894 5893 5892 5892 5891 5890 5890 5889 5888 5888 5887 5886 5885 5883 5882 5881 5880 5879 5878 5877 5877 5876 5874 5873 5872 5872
5881 5883 5885 5886 5888 5889 5891 5892 5893 5893 5894 5893 5893 5893 5892 5892 5891 5891 5890 5890 5889 5889 5888 5887 5886 5885 5885 5884 5883 5881 5880 5879 5878 5877 5876 5875 5874 5873 5872 5871 5870 5869 5868
5879 5881 5883 5884 5885 5886 5888 5889 5890 5891 5891 5892 5890 5889 5888 5889 5888 5887 5887 5887 5887 5886 5885 5885 5884 5883 5881 5880 5879 5878 5877 5876 5875 5874 5873 5872 5871 5870 5868 5867 5866 5866 5865
5875 5878 5880 5882 5883 5883 5884 5886 5886 5887 5888 5888 5887 5886 5885 5884 5884 5884 5884 5884 5883 5882 5882 5881 5880 5879 5877 5876 5875 5874 5873 5872 5872 5870 5869 5868 5867 5866 5865 5863 5862 5862 5861
5872 5874 5876 5878 5880 5880 5880 5881 5881 5882 5883 5884 5883 5882 5882 5881 5881 5880 5881 5880 5879 5878 5878 5877 5876 5874 5873 5872 5871 5870 5868 5868 5867 5867 5866 5864 5864 5862 5861 5860 5859 5857 5857
5868 5871 5873 5875 5876 5877 5877 5877 5878 5879 5880 5879 5879 5879 5878 5878 5878 5877 5877 5876 5875 5874 5874 5873 5871 5870 5869 5868 5867 5866 5865 5864 5863 5862 5860 5859 5859 5858 5857 5855 5855 5853 5851
5865 5867 5869 5870 5872 5873 5873 5874 5875 5877 5876 5876 5875 5875 5875 5875 5874 5874 5874 5872 5872 5870 5869 5868 5867 5867 5865 5864 5863 5862 5861 5860 5859 5857 5855 5854 5854 5852 5852 5851 5850 5849 5848
5860 5863 5864 5866 5867 5869 5869 5870 5871 5871 5871 5871 5871 5871 5870 5871 5870 5870 5869 5868 5867 5866 5865 5863 5862 5862 5860 5860 5859 5857 5856 5856 5855 5852 5851 5849 5848 5847 5846 5846 5845 5845 5843
5853 5857 5860 5862 5862 5864 5864 5864 5866 5867 5867 5866 5866 5865 5865 5867 5866 5866 5865 5864 5863 5861 5860 5858 5858 5857 5855 5854 5853 5851 5851 5851 5850 5848 5846 5845 5843 5842 5841 5840 5840 5839 5838
5849 5851 5853 5856 5857 5859 5860 5860 5861 5861 5862 5862 5862 5861 5861 5862 5863 5861 5860 5859 5857 5856 5854 5853 5852 5851 5850 5849 5847 5847 5845 5844 5844 5842 5841 5838 5838 5836 5835 5834 5834 5833 5832
5844 5845 5846 5850 5852 5853 5854 5855 5855 5856 5856 5856 5856 5857 5857 5856 5856 5856 5854 5853 5851 5849 5847 5847 5845 5844 5843 5843 5841 5840 5839 5837 5837 5835 5834 5832 5831 5829 5829 5828 5827 5826 5826
5838 5840 5842 5843 5845 5847 5848 5849 5850 5851 5852 5851 5850 5851 5851 5850 5850 5849 5847 5846 5844 5844 5843 5842 5840 5839 5838 5836 5834 5832 5831 5830 5829 5828 5827 5826 5825 5823 5822 5822 5820 5819 5819
5832 5835 5836 5837 5839 5842 5843 5843 5844 5843 5845 5846 5844 5844 5843 5842 5842 5842 5841 5839 5837 5836 5834 5834 5832 5831 5829 5827 5826 5825 5824 5823 5822 5821 5819 5819 5817 5816 5814 5813 5813 5812 5811
5825 5830 5832 5834 5835 5835 5836 5837 5838 5838 5838 5837 5838 5838 5836 5835 5834 5833 5832 5831 5829 5828 5827 5824 5822 5822 5821 5819 5817 5815 5813 5812 5811 5811 5811 5810 5810 5808 5807 5806 5804 5804 5803
5820 5822 5826 5828 5829 5829 5829 5829 5830 5830 5831 5831 5830 5828 5827 5828 5827 5825 5823 5821 5820 5818 5818 5815 5813 5811 5811 5808 5806 5805 5804 5802 5801 5801 5802 5802 5800 5799 5798 5797 5796 5795 5794
5814 5816 5817 5818 5822 5823 5824 5823 5823 5823 5823 5822 5823 5823 5821 5818 5816 5815 5814 5812 5810 5809 5808 5806 5803 5801 5799 5797 5795 5794 5793 5792 5791 5790 5790 5789 5789 5788 5787 5786 5785 5785 5784
5806 5808 5809 5811 5812 5813 5814 5815 5817 5818 5818 5816 5814 5811 5810 5810 5809 5807 5805 5802 5800 5800 5798 5796 5794 5792 5789 5785 5782 5781 5781 5780 5780 5777 5777 5777 5776 5777 5777 5775 5775 5775 5774
5798 5800 5802 5804 5804 5805 5806 5807 5808 5808 5809 5809 5808 5805 5800 5796 5795 5795 5796 5794 5791 5789 5788 5785 5783 5780 5778 5775 5773 5769 5768 5768 5766 5765 5765 5765 5765 5765 5765 5765 5765 5763 5763
5790 5793 5794 5795 5797 5798 5798 5798 5798 5798 5798 5798 5798 5797 5794 5790 5786 5783 5782 5782 5781 5777 5776 5774 5770 5769 5765 5763 5759 5759 5754 5753 5753 5752 5752 5751 5751 5752 5752 5752 5752 5752 5751
5782 5784 5786 5788 5789 5789 5789 5789 5789 5789 5788 5787 5785 5786 5785 5782 5779 5776 5772 5770 5769 5767 5765 5762 5760 5757 5753 5750 5747 5744 5741 5738 5737 5737 5737 5737 5736 5738 5739 5739 5740 5739 5739
5774 5776 5778 5779 5779 5780 5780 5780 5780 5780 5778 5777 5776 5775 5774 5773 5770 5767 5764 5761 5758 5755 5753 5750 5747 5744 5740 5735 5732 5729 5725 5722 5721 5720 5721 5722 5721 5722 5723 5725 5726 5726 5726
Wind_Speed
17 14 13 11 9 7 6 5 5 7 7 9 10 10 11 11 12 12 13 13 13 13 13 13 13 14 16 17 17 17 17 17 17 16 15 15 14 14 15 15 15 15 15
15 12 11 10 8 6 5 5 6 7 9 10 11 11 12 13 14 14 14 14 14 14 14 13 14 14 15 15 15 15 15 14 14 14 15 14 14 14 14 15 15 16 16
14 12 10 9 7 6 7 7 8 10 11 11 11 12 13 14 14 15 15 15 14 14 14 15 15 15 16 15 15 15 15 14 14 13 14 15 15 15 15 15 16 16 15
15 12 10 10 9 8 9 11 12 12 12 12 12 12 13 14 14 14 14 14 15 14 14 15 16 18 18 18 18 17 17 17 15 16 17 15 16 15 15 15 15 16 17
16 15 13 13 13 13 12 13 14 13 13 13 12 13 14 13 14 15 15 16 16 16 16 16 16 17 18 18 19 19 18 18 17 16 17 16 15 14 13 14 14 16 16
19 17 16 16 16 16 16 16 15 15 14 14 14 15 16 16 17 18 17 17 16 15 16 16 17 18 18 19 20 20 20 18 17 17 16 16 15 14 14 15 16 16 15
21 20 19 19 19 19 19 17 17 16 14 16 17 17 17 18 18 18 17 17 16 16 17 16 17 17 18 19 19 19 19 18 17 17 15 15 14 15 15 17 16 16 16
23 23 21 21 21 21 20 18 17 17 16 16 18 20 20 19 18 18 18 17 17 18 17 17 16 17 17 17 18 19 19 18 18 20 19 18 17 17 16 16 16 16 17
27 25 25 24 22 21 20 19 18 18 18 18 19 19 19 21 19 18 18 19 18 18 18 18 17 17 16 17 18 18 19 20 20 21 20 19 18 17 16 17 18 18 19
28 27 26 24 23 22 21 21 21 21 20 20 21 21 19 18 19 19 18 19 19 19 20 19 18 17 18 17 18 19 20 19 20 19 19 18 18 18 18 19 20 21 20
29 28 27 26 24 23 23 23 23 22 22 22 21 21 21 18 17 18 18 19 21 20 20 20 20 20 20 20 20 21 21 20 19 20 19 18 18 19 21 22 21 22 22
30 29 28 27 26 26 25 25 25 24 23 22 22 21 19 18 17 18 18 20 21 22 23 22 21 22 22 23 24 24 23 23 20 22 21 22 21 21 21 21 21 21 21
31 30 28 28 28 27 28 27 24 23 23 23 23 21 20 20 20 21 21 22 22 22 23 23 24 24 25 25 25 26 26 25 24 24 24 25 25 24 23 22 22 21 22
31 30 29 28 29 27 27 26 23 23 23 23 22 23 22 21 22 24 24 25 25 24 24 23 24 25 26 27 28 27 27 26 26 26 28 26 28 27 25 25 24 24 25
31 31 30 30 29 28 26 26 24 23 23 23 23 24 25 23 22 25 26 27 27 26 27 26 26 27 29 29 30 29 28 28 27 27 27 29 28 29 28 28 27 26 27
32 32 33 30 30 28 27 26 25 24 25 25 24 24 24 26 26 26 27 27 28 29 31 30 31 31 31 32 32 32 32 30 30 30 27 29 30 28 29 29 28 28 28
34 33 31 31 30 29 28 28 28 27 25 25 27 26 27 28 29 30 31 30 31 30 31 33 35 35 35 36 37 36 36 35 33 32 31 30 32 32 30 30 30 29 29
35 32 31 32 30 28 29 30 29 29 28 27 29 32 32 32 32 32 32 32 34 35 36 35 35 35 36 38 38 40 39 39 39 37 35 33 33 34 33 32 31 30 30
36 31 30 29 30 31 32 31 31 31 31 31 31 33 33 34 35 35 35 35 36 37 37 38 40 40 38 40 41 42 42 42 42 41 38 37 35 36 36 35 33 32 31
33 31 31 31 30 33 34 34 33 33 33 33 34 35 35 36 36 36 39 40 41 40 40 41 42 43 43 44 46 45 45 45 45 44 41 40 39 38 39 39 37 36 34
35 33 35 37 34 33 35 36 37 34 36 36 35 36 37 39 40 40 40 41 42 42 43 43 44 45 46 47 49 48 50 49 48 48 46 45 43 41 41 41 40 39 38
37 37 38 38 39 38 37 37 36 36 35 36 38 40 41 41 41 42 42 43 44 43 44 44 45 46 47 49 50 51 50 50 46 46 47 46 47 46 43 44 43 42 42
40 40 39 40 41 41 38 37 36 37 37 36 37 40 44 46 46 44 44 44 46 47 48 48 48 50 51 53 54 53 54 53 52 51 50 47 46 46 46 46 47 48 47
40 39 39 38 38 37 36 36 37 37 37 38 38 39 42 45 47 49 49 48 49 49 50 50 53 53 53 53 53 54 54 55 54 54 50 49 49 50 48 47 47 51 54
37 37 35 33 32 33 33 35 36 37 38 39 40 39 40 43 46 47 49 49 49 48 49 51 52 55 57 58 58 59 58 58 57 56 55 51 51 51 50 50 50 53 48
32 32 31 32 33 34 34 35 36 37 39 39 41 42 43 44 44 43 43 45 47 48 49 52 54 55 58 60 60 62 64 64 63 60 57 57 55 54 54 47 53 53 56
Wind_Direction
238 238 236 235 241 242 248 274 301 306 302 303 303 302 306 306 309 312 311 310 310 308 307 305 305 306 304 305 303 305 308 309 305 306 305 305 305 304 304 303 303 303 302
232 232 230 230 229 241 257 285 289 293 294 293 294 296 296 300 300 301 300 301 303 309 311 312 314 314 310 310 312 312 310 308 306 307 302 301 297 296 296 298 299 298 300
240 238 242 240 241 261 274 278 286 285 282 283 285 287 288 290 291 293 294 297 301 305 305 307 310 312 314 313 313 312 310 307 301 303 292 296 296 296 296 296 298 298 301
242 245 248 253 255 259 271 273 270 272 274 276 280 284 289 291 292 294 294 296 296 298 299 303 303 304 305 306 304 304 302 298 295 290 293 289 290 290 293 297 298 297 301
239 245 245 252 254 256 259 264 265 264 267 274 279 282 287 290 294 299 301 299 299 300 300 302 304 304 304 306 304 302 302 300 296 290 292 287 285 288 291 294 293 295 298
239 243 249 249 254 255 254 255 259 265 268 273 283 287 292 296 300 302 301 300 299 303 305 306 307 308 307 306 305 302 301 296 292 290 287 289 292 291 295 297 291 290 290
238 237 242 247 251 255 255 253 256 260 272 285 286 288 294 299 302 302 302 303 305 307 304 303 303 302 302 298 297 298 296 295 292 292 292 290 292 291 294 294 294 296 295
237 242 245 249 253 255 257 262 264 270 276 280 290 296 299 300 302 301 302 304 304 302 298 296 296 292 292 292 292 293 294 295 296 295 295 293 291 293 294 296 296 296 295
241 245 248 252 255 258 262 266 271 275 281 287 294 296 299 302 303 300 301 299 300 298 296 295 292 291 291 290 291 293 293 296 298 296 294 293 291 291 288 287 289 290 289
246 250 253 255 256 258 263 269 275 278 286 292 295 295 293 294 296 297 298 299 297 294 293 293 293 292 291 289 290 289 290 290 291 290 290 290 290 290 288 287 287 286 287
245 250 254 254 255 256 260 267 273 283 290 293 291 290 291 292 292 293 296 296 294 292 291 291 292 291 290 290 289 287 287 288 288 287 285 285 288 291 294 293 290 291 290
242 247 249 249 252 258 266 271 277 284 285 286 287 288 289 294 295 294 295 293 293 293 290 289 289 290 290 291 292 290 290 289 286 285 285 286 286 290 292 290 289 288 287
240 237 242 249 253 260 265 270 277 281 284 285 287 289 293 297 295 292 288 285 287 287 284 286 288 289 289 289 290 291 291 290 288 285 284 285 286 285 290 287 286 285 284
240 243 243 250 258 263 268 274 277 279 281 284 290 293 294 292 293 292 288 285 281 284 284 284 284 286 288 290 290 291 290 292 292 291 290 287 286 287 289 286 285 285 285
243 247 249 251 255 259 263 268 273 277 280 282 285 287 288 291 290 289 288 287 284 283 281 283 283 284 284 285 287 289 289 289 289 287 290 292 289 288 288 285 284 284 286
244 249 253 255 257 261 263 267 272 274 276 279 282 286 287 288 288 286 286 285 285 284 280 279 280 282 284 285 286 287 287 287 288 286 286 286 287 286 286 284 283 284 285
240 244 253 259 261 265 270 272 273 271 273 278 281 279 281 284 286 286 287 287 284 282 282 283 285 286 285 284 284 283 282 282 284 286 287 286 287 286 283 281 280 282 284
238 243 250 257 264 268 269 270 271 274 275 275 279 283 285 286 287 289 289 288 287 288 286 283 282 281 281 281 282 284 285 286 284 282 285 286 283 283 282 279 278 278 279
239 241 250 261 266 265 265 266 268 271 275 278 279 281 284 286 288 290 289 289 287 286 284 284 284 282 280 280 279 278 278 279 279 279 281 283 283 283 283 281 277 275 275
244 250 247 246 253 263 268 271 271 273 275 278 282 284 286 287 287 288 288 288 287 287 287 286 285 285 283 280 278 278 279 278 278 278 277 278 278 278 278 278 276 273 271
245 250 255 259 255 256 261 264 270 274 277 280 281 283 285 286 287 287 285 284 286 287 286 286 285 282 281 280 281 281 281 281 280 278 277 274 273 273 273 273 273 271 268
249 250 253 258 261 262 262 265 266 267 270 276 282 285 283 282 283 285 283 284 284 284 284 285 283 282 281 281 281 281 280 278 280 279 277 278 276 273 272 271 271 270 267
247 250 253 256 260 263 263 264 266 269 270 271 273 276 281 285 285 285 284 284 284 284 284 282 280 279 278 281 282 278 277 276 275 275 276 276 277 275 272 271 271 269 266
250 252 254 257 258 260 261 265 268 270 273 275 274 275 276 279 282 284 285 285 284 284 284 285 285 285 283 282 279 280 278 275 272 271 271 273 273 273 274 271 270 276 274
250 252 254 255 258 261 261 264 267 270 273 276 278 277 276 277 279 282 284 285 285 285 286 286 286 285 286 284 284 281 278 277 274 272 269 271 270 269 271 273 269 271 279
246 249 256 262 266 269 268 270 270 271 273 275 277 280 281 280 280 281 282 284 285 287 287 287 288 288 287 285 284 281 280 278 274 272 269 267 268 266 266 274 272 267 271